SCP
0 0 0 0 0 0 0 0 0 0 0 0 0 0 0 0 0 0 0 0 0 0
0 0 0 0 0 0 0 0 0 0 0 0 0 0 0 0 0 0 0 0 0 0
0 0 0 0 0 0 0 0 0 0 0 0 0 0 0 0 0 0 0 0 0 0
0 0 0 0 0 0 0 0 0 0 0 0 0 0 0 0 0 0 0 0 0 0
0 0 0 0 0 0 0 0 0 0 0 0 0 0 0 0 0 0 0 0 0 0
0 0 0 0 0 0 0 0 0 0 0 0 0 0 0 0 0 0 0 0 0 0
0 0 0 0 0 0 0 0 0 0 0 0 0 0 0 0 0 0 0 0 0 0
0 0 0 0 0 0 0 0 0 0 0 0 0 0 0 0 0 0 0 0 0 0
0 0 0 0 0 0 0 0 0 0 0 0 0 0 0 0 0 0 0 0 0 0
0 0 0 0 0 0 0 0 0 0 0 0 0 0 0 0 0 0 0 0 0 0
0 0 0 0 0 0 0 0 0 0 0 0 0 0 0 0 0 0 0 0 0 0
0 0 0 0 0 0 0 0 0 0 0 0 0 0 0 0 0 0 0 0 0 0
0 0 0 0 0 0 0 0 0 0 0 0 0 0 0 0 0 0 0 0 0 0
0 0 0 0 0 0 0 0 0 0 0 0 0 0 0 0 0 0 0 0 0 0
Wind_Speed_500mb
20 24 29 33 33 31 38 38 42 41 43 42 41 41 45 44 39 33 31 30 34 37
20 25 30 31 32 37 42 43 42 44 46 45 41 46 48 47 37 33 33 34 37 40
24 31 35 40 41 42 44 46 45 46 47 45 45 45 45 43 35 36 32 36 40 40
33 40 40 42 45 44 45 44 44 44 47 49 48 46 47 38 32 28 33 36 38 39
33 41 46 42 37 42 49 49 47 46 47 50 47 45 49 30 23 27 31 36 39 46
45 43 38 34 42 48 55 53 47 47 47 49 48 47 52 23 21 27 32 40 48 58
34 30 33 42 49 54 53 49 47 44 43 46 47 53 17 16 30 29 37 49 57 57
28 36 41 47 51 53 48 51 49 43 37 34 23 17 20 28 27 35 49 55 56 55
37 42 45 49 52 47 48 46 33 31 28 17 18 21 21 24 34 47 53 53 54 56
40 45 46 46 48 47 43 38 35 28 22 24 21 19 25 36 45 46 47 50 53 54
43 44 44 43 49 45 43 40 39 27 23 23 20 26 34 43 42 43 45 48 48 45
44 43 44 51 52 46 47 41 35 27 22 19 25 33 41 41 41 42 46 47 43 41
47 45 45 52 49 47 46 31 22 22 22 21 29 36 38 37 40 44 46 39 40 40
48 48 49 48 48 48 31 29 25 19 20 29 35 34 33 34 37 40 38 37 39 37
Wind_Direction_500mb
325 324 325 330 328 325 330 321 319 318 309 300 302 312 312 304 304 300 300 303 308 306
331 328 325 326 324 321 321 317 309 307 304 301 306 315 313 299 295 294 298 302 303 301
314 317 319 317 315 303 300 302 302 306 303 299 294 307 309 292 288 292 293 298 300 299
312 318 318 313 310 307 311 312 306 305 300 296 292 297 296 275 285 285 297 300 298 298
319 316 315 317 314 316 317 316 311 302 292 291 287 295 288 272 270 291 298 298 297 301
315 319 319 314 316 320 321 319 310 304 298 293 297 303 290 268 277 294 288 298 304 308
321 315 314 318 321 325 326 321 313 304 303 304 300 295 263 272 293 289 297 305 307 307
314 315 319 319 325 328 325 321 314 312 309 308 317 301 292 293 294 300 307 310 309 310
318 319 319 319 325 328 324 320 314 308 312 327 313 304 299 303 304 310 310 310 315 314
313 312 315 317 322 324 322 324 313 320 305 305 298 298 307 310 311 311 314 318 318 316
314 309 310 311 318 319 317 309 308 299 299 296 293 304 309 312 313 316 319 321 322 321
323 316 311 312 313 316 316 311 300 287 289 285 300 307 312 314 317 321 323 325 327 325
321 314 309 311 314 314 316 315 304 285 282 288 301 309 310 314 319 322 326 327 327 327
318 311 306 307 310 312 304 293 292 279 285 300 307 308 310 315 318 323 324 325 328 328
Wind_Speed_850mb
20 24 29 33 33 31 38 38 42 41 43 42 41 41 45 44 39 33 31 30 34 37
20 25 30 31 32 37 42 43 42 44 46 45 41 46 48 47 37 33 33 34 37 40
24 31 35 40 41 42 44 46 45 46 47 45 45 45 45 43 35 36 32 36 40 40
33 40 40 42 45 44 45 44 44 44 47 49 48 46 47 38 32 28 33 36 38 39
33 41 46 42 37 42 49 49 47 46 47 50 47 45 49 30 23 27 31 36 39 46
45 43 38 34 42 48 55 53 47 47 47 49 48 47 52 23 21 27 32 40 48 58
34 30 33 42 49 54 53 49 47 44 43 46 47 53 17 16 30 29 37 49 57 57
28 36 41 47 51 53 48 51 49 43 37 34 23 17 20 28 27 35 49 55 56 55
37 42 45 49 52 47 48 46 33 31 28 17 18 21 21 24 34 47 53 53 54 56
40 45 46 46 48 47 43 38 35 28 22 24 21 19 25 36 45 46 47 50 53 54
43 44 44 43 49 45 43 40 39 27 23 23 20 26 34 43 42 43 45 48 48 45
44 43 44 51 52 46 47 41 35 27 22 19 25 33 41 41 41 42 46 47 43 41
47 45 45 52 49 47 46 31 22 22 22 21 29 36 38 37 40 44 46 39 40 40
48 48 49 48 48 48 31 29 25 19 20 29 35 34 33 34 37 40 38 37 39 37
Wind_Direction_850mb
325 324 325 330 328 325 330 321 319 318 309 300 302 312 312 304 304 300 300 303 308 306
331 328 325 326 324 321 321 317 309 307 304 301 306 315 313 299 295 294 298 302 303 301
314 317 319 317 315 303 300 302 302 306 303 299 294 307 309 292 288 292 293 298 300 299
312 318 318 313 310 307 311 312 306 305 300 296 292 297 296 275 285 285 297 300 298 298
319 316 315 317 314 316 317 316 311 302 292 291 287 295 288 272 270 291 298 298 297 301
315 319 319 314 316 320 321 319 310 304 298 293 297 303 290 268 277 294 288 298 304 308
321 315 314 318 321 325 326 321 313 304 303 304 300 295 263 272 293 289 297 305 307 307
314 315 319 319 325 328 325 321 314 312 309 308 317 301 292 293 294 300 307 310 309 310
318 319 319 319 325 328 324 320 314 308 312 327 313 304 299 303 304 310 310 310 315 314
313 312 315 317 322 324 322 324 313 320 305 305 298 298 307 310 311 311 314 318 318 316
314 309 310 311 318 319 317 309 308 299 299 296 293 304 309 312 313 316 319 321 322 321
323 316 311 312 313 316 316 311 300 287 289 285 300 307 312 314 317 321 323 325 327 325
321 314 309 311 314 314 316 315 304 285 282 288 301 309 310 314 319 322 326 327 327 327
318 311 306 307 310 312 304 293 292 279 285 300 307 308 310 315 318 323 324 325 328 328